SWA4523 KSTS-KBUR

Flight info

Callsign SWA4523
Flight time 0h 56m
Altitude 35000
Route RREHD1 HADLY KTINA CISKO RDHOT ROKKR3
Aircraft B738/M-SDE2E3FGHIRWXY/LB1

Departure

Time 2026-04-25 04:08
Airport Charles M. Schulz Sonoma County Airport (KSTS)

Arrival

Time 2026-04-25 05:04
Airport Hollywood Burbank/Bob Hope Airport (KBUR)
Time Latitude Longitude Altitude Speed Heading
2026-04-25 03:43 38.50970 -122.80664 135 ft 0 kts 66°
2026-04-25 04:01 38.50965 -122.80678 143 ft 2 kts 66°
2026-04-25 04:01 38.50959 -122.80696 140 ft 2 kts 66°
2026-04-25 04:01 38.50950 -122.80712 140 ft 2 kts 36°
2026-04-25 04:02 38.50940 -122.80719 140 ft 0 kts 359°
2026-04-25 04:03 38.50949 -122.80720 140 ft 6 kts 352°
2026-04-25 04:04 38.51017 -122.80754 138 ft 13 kts 338°
2026-04-25 04:04 38.51090 -122.80802 137 ft 4 kts 294°
2026-04-25 04:04 38.51117 -122.80883 137 ft 16 kts 323°
2026-04-25 04:04 38.51238 -122.80950 136 ft 20 kts 337°
2026-04-25 04:05 38.51367 -122.81019 135 ft 20 kts 337°
2026-04-25 04:05 38.51491 -122.81087 135 ft 19 kts 337°
2026-04-25 04:05 38.51612 -122.81151 135 ft 18 kts 338°
2026-04-25 04:05 38.51731 -122.81213 125 ft 17 kts 338°
2026-04-25 04:06 38.51776 -122.81273 120 ft 0 kts 255°
2026-04-25 04:06 38.51766 -122.81308 115 ft 11 kts 241°
2026-04-25 04:06 38.51704 -122.81358 116 ft 3 kts 158°
2026-04-25 04:07 38.51601 -122.81305 123 ft 51 kts 158°
2026-04-25 04:07 38.51009 -122.80985 140 ft 131 kts 157°
2026-04-25 04:07 38.49990 -122.80436 423 ft 173 kts 159°
2026-04-25 04:08 38.48857 -122.79842 1428 ft 178 kts 166°
2026-04-25 04:08 38.47611 -122.79954 2183 ft 194 kts 210°
2026-04-25 04:08 38.46673 -122.81284 2464 ft 217 kts 245°
2026-04-25 04:08 38.45936 -122.83082 2856 ft 235 kts 243°
2026-04-25 04:09 38.45144 -122.84945 3506 ft 242 kts 243°
2026-04-25 04:09 38.44331 -122.86865 4244 ft 248 kts 242°
2026-04-25 04:09 38.43509 -122.88811 5092 ft 252 kts 242°
2026-04-25 04:09 38.42668 -122.90805 5833 ft 260 kts 242°
2026-04-25 04:10 38.41809 -122.92845 6663 ft 263 kts 242°
2026-04-25 04:10 38.40951 -122.94881 7468 ft 263 kts 242°
2026-04-25 04:10 38.40072 -122.96965 8241 ft 269 kts 241°
2026-04-25 04:10 38.39145 -122.99070 9046 ft 272 kts 233°
2026-04-25 04:11 38.35837 -123.01154 10200 ft 290 kts 175°
2026-04-25 04:11 38.33845 -123.00434 10406 ft 311 kts 149°
2026-04-25 04:11 38.31976 -122.98854 10621 ft 333 kts 142°
2026-04-25 04:12 38.30104 -122.97034 11170 ft 343 kts 141°
2026-04-25 04:12 38.28216 -122.95139 11880 ft 348 kts 140°
2026-04-25 04:12 38.26300 -122.93212 12625 ft 352 kts 141°
2026-04-25 04:12 38.24358 -122.91273 13337 ft 358 kts 141°
2026-04-25 04:13 38.22381 -122.89318 14060 ft 362 kts 141°
2026-04-25 04:13 38.20375 -122.87350 14731 ft 365 kts 141°
2026-04-25 04:13 38.18345 -122.85368 15406 ft 369 kts 142°
2026-04-25 04:13 38.16300 -122.83381 16105 ft 372 kts 142°
2026-04-25 04:14 38.14236 -122.81381 16780 ft 375 kts 142°
2026-04-25 04:14 38.12146 -122.79359 17413 ft 379 kts 142°
2026-04-25 04:14 38.10062 -122.77345 18021 ft 384 kts 142°
2026-04-25 04:14 38.07919 -122.75277 18605 ft 388 kts 142°
2026-04-25 04:15 38.05756 -122.73191 19165 ft 392 kts 143°
2026-04-25 04:15 38.03566 -122.71080 19593 ft 399 kts 143°
2026-04-25 04:15 38.01338 -122.68935 20088 ft 404 kts 143°
2026-04-25 04:15 37.99104 -122.66787 20739 ft 404 kts 144°
2026-04-25 04:16 37.96851 -122.64623 21252 ft 409 kts 144°
2026-04-25 04:16 37.94565 -122.62428 21700 ft 415 kts 144°
2026-04-25 04:16 37.92259 -122.60214 22290 ft 416 kts 144°
2026-04-25 04:16 37.89950 -122.57999 22901 ft 417 kts 144°
2026-04-25 04:17 37.87618 -122.55764 23349 ft 422 kts 144°
2026-04-25 04:17 37.85263 -122.53511 23741 ft 427 kts 144°
2026-04-25 04:17 37.82885 -122.51239 24162 ft 429 kts 145°
2026-04-25 04:17 37.80491 -122.48955 24580 ft 432 kts 145°
2026-04-25 04:18 37.78077 -122.46647 24895 ft 438 kts 146°
2026-04-25 04:18 37.75635 -122.44315 25271 ft 441 kts 146°
2026-04-25 04:18 37.73180 -122.41973 25679 ft 443 kts 146°
2026-04-25 04:18 37.70704 -122.39613 26082 ft 446 kts 146°
2026-04-25 04:19 37.68219 -122.37247 26428 ft 449 kts 146°
2026-04-25 04:19 37.65708 -122.34860 26776 ft 453 kts 147°
2026-04-25 04:19 37.63182 -122.32460 27105 ft 456 kts 147°
2026-04-25 04:19 37.60627 -122.30035 27345 ft 462 kts 147°
2026-04-25 04:20 37.58052 -122.27594 27672 ft 465 kts 147°
2026-04-25 04:20 37.55492 -122.25168 28037 ft 467 kts 148°
2026-04-25 04:20 37.52888 -122.22702 28380 ft 469 kts 148°
2026-04-25 04:20 37.50268 -122.20223 28692 ft 473 kts 148°
2026-04-25 04:21 37.47625 -122.17726 28895 ft 478 kts 149°
2026-04-25 04:21 37.44946 -122.15199 29113 ft 483 kts 149°
2026-04-25 04:21 37.42250 -122.12656 29446 ft 485 kts 149°
2026-04-25 04:21 37.39544 -122.10104 29780 ft 487 kts 149°
2026-04-25 04:22 37.36825 -122.07543 30083 ft 489 kts 149°
2026-04-25 04:22 37.34102 -122.04979 30453 ft 488 kts 149°
2026-04-25 04:22 37.31372 -122.02411 30595 ft 493 kts 149°
2026-04-25 04:22 37.28606 -121.99815 30711 ft 498 kts 149°
2026-04-25 04:23 37.25826 -121.97209 30962 ft 499 kts 149°
2026-04-25 04:23 37.23043 -121.94598 31360 ft 497 kts 149°
2026-04-25 04:23 37.20279 -121.92005 31812 ft 494 kts 149°
2026-04-25 04:23 37.17570 -121.89474 32257 ft 490 kts 150°
2026-04-25 04:24 37.14840 -121.86925 32550 ft 490 kts 150°
2026-04-25 04:24 37.12100 -121.84367 32784 ft 491 kts 150°
2026-04-25 04:24 37.09350 -121.81801 33075 ft 492 kts 150°
2026-04-25 04:24 37.06611 -121.79238 33444 ft 490 kts 150°
2026-04-25 04:25 37.03882 -121.76698 33936 ft 485 kts 150°
2026-04-25 04:25 37.01180 -121.74182 34285 ft 483 kts 150°
2026-04-25 04:25 36.98473 -121.71666 34436 ft 486 kts 150°
2026-04-25 04:25 36.95750 -121.69141 34598 ft 489 kts 150°
2026-04-25 04:26 36.93019 -121.66609 34895 ft 487 kts 150°
2026-04-25 04:26 36.87541 -121.61536 34989 ft 491 kts 150°
2026-04-25 04:27 36.82085 -121.56482 34982 ft 484 kts 150°
2026-04-25 04:27 36.76685 -121.51493 35004 ft 483 kts 150°
2026-04-25 04:28 36.71296 -121.46532 34998 ft 484 kts 150°
2026-04-25 04:28 36.65869 -121.41537 34999 ft 485 kts 150°
2026-04-25 04:29 36.60437 -121.36557 34990 ft 484 kts 152°
2026-04-25 04:29 36.54992 -121.31598 34993 ft 485 kts 150°
2026-04-25 04:30 36.49574 -121.26601 34966 ft 485 kts 151°
2026-04-25 04:30 36.44139 -121.21629 34988 ft 485 kts 151°
2026-04-25 04:31 36.38735 -121.16702 34967 ft 485 kts 151°
2026-04-25 04:31 36.33429 -121.11470 34976 ft 488 kts 147°
2026-04-25 04:32 36.28226 -121.06027 34959 ft 489 kts 147°
2026-04-25 04:32 36.23017 -121.00604 34962 ft 488 kts 147°
2026-04-25 04:33 36.17787 -120.95225 34940 ft 487 kts 148°
2026-04-25 04:33 36.12599 -120.89922 34945 ft 486 kts 148°
2026-04-25 04:34 36.07373 -120.84628 34951 ft 485 kts 148°
2026-04-25 04:34 36.02177 -120.79315 34936 ft 484 kts 148°
2026-04-25 04:35 35.96987 -120.74016 34958 ft 483 kts 148°
2026-04-25 04:35 35.92679 -120.69637 34957 ft 482 kts 148°
2026-04-25 04:36 35.86654 -120.63528 34958 ft 481 kts 148°
2026-04-25 04:36 35.81487 -120.58299 34986 ft 480 kts 148°
2026-04-25 04:37 35.77201 -120.53971 34989 ft 479 kts 148°
2026-04-25 04:37 35.72058 -120.48777 34990 ft 474 kts 148°
2026-04-25 04:37 35.69548 -120.46238 34967 ft 460 kts 149°
2026-04-25 04:38 35.67111 -120.43795 34963 ft 445 kts 150°
2026-04-25 04:38 35.64733 -120.41431 34752 ft 436 kts 150°
2026-04-25 04:38 35.62354 -120.39083 33764 ft 444 kts 150°
2026-04-25 04:38 35.59911 -120.36674 32589 ft 455 kts 149°
2026-04-25 04:39 35.57473 -120.34215 32266 ft 454 kts 148°
2026-04-25 04:39 35.52643 -120.29160 31920 ft 451 kts 147°
2026-04-25 04:39 35.50229 -120.26617 31130 ft 457 kts 147°
2026-04-25 04:40 35.47848 -120.24117 30654 ft 456 kts 147°
2026-04-25 04:40 35.45438 -120.21597 30271 ft 453 kts 147°
2026-04-25 04:40 35.43045 -120.19099 29825 ft 450 kts 147°
2026-04-25 04:40 35.40661 -120.16615 29368 ft 446 kts 147°
2026-04-25 04:41 35.38309 -120.14173 28953 ft 442 kts 147°
2026-04-25 04:41 35.35971 -120.11746 28537 ft 439 kts 147°
2026-04-25 04:41 35.33645 -120.09336 28115 ft 435 kts 147°
2026-04-25 04:41 35.31349 -120.06954 27751 ft 431 kts 147°
2026-04-25 04:42 35.29061 -120.04585 27332 ft 428 kts 147°
2026-04-25 04:42 35.26789 -120.02231 26932 ft 426 kts 147°
2026-04-25 04:42 35.24559 -119.99926 26548 ft 424 kts 147°
2026-04-25 04:42 35.22316 -119.97610 26158 ft 421 kts 147°
2026-04-25 04:43 35.20078 -119.95301 25766 ft 419 kts 147°
2026-04-25 04:43 35.17850 -119.93002 25359 ft 418 kts 146°
2026-04-25 04:43 35.15637 -119.90720 24978 ft 415 kts 146°
2026-04-25 04:43 35.13420 -119.88468 24589 ft 412 kts 147°
2026-04-25 04:44 35.11230 -119.86222 24221 ft 411 kts 146°
2026-04-25 04:44 35.09055 -119.83967 23818 ft 410 kts 146°
2026-04-25 04:44 35.06871 -119.81712 23405 ft 409 kts 146°
2026-04-25 04:44 35.04731 -119.79487 22980 ft 409 kts 144°
2026-04-25 04:45 35.02584 -119.77216 22567 ft 408 kts 145°
2026-04-25 04:45 35.00433 -119.74978 22155 ft 405 kts 146°
2026-04-25 04:45 34.98275 -119.72787 21775 ft 402 kts 146°
2026-04-25 04:45 34.96124 -119.70638 21391 ft 399 kts 146°
2026-04-25 04:46 34.93992 -119.68487 21028 ft 396 kts 146°
2026-04-25 04:46 34.91883 -119.66337 20662 ft 393 kts 145°
2026-04-25 04:46 34.89793 -119.64199 20299 ft 391 kts 145°
2026-04-25 04:46 34.87711 -119.62063 19930 ft 389 kts 144°
2026-04-25 04:47 34.85805 -119.59695 19444 ft 395 kts 134°
2026-04-25 04:47 34.84081 -119.57066 18934 ft 398 kts 131°
2026-04-25 04:47 34.82417 -119.54417 18415 ft 400 kts 131°
2026-04-25 04:47 34.80700 -119.51747 17861 ft 401 kts 132°
2026-04-25 04:48 34.78952 -119.49123 17270 ft 396 kts 132°
2026-04-25 04:48 34.77229 -119.46552 16812 ft 387 kts 132°
2026-04-25 04:48 34.75570 -119.44039 16482 ft 374 kts 132°
2026-04-25 04:48 34.73973 -119.41595 16155 ft 363 kts 132°
2026-04-25 04:49 34.72427 -119.39228 15839 ft 352 kts 132°
2026-04-25 04:49 34.70924 -119.36928 15545 ft 344 kts 132°
2026-04-25 04:49 34.69439 -119.34661 15256 ft 340 kts 132°
2026-04-25 04:49 34.67969 -119.32421 14959 ft 341 kts 132°
2026-04-25 04:50 34.66480 -119.30161 14706 ft 344 kts 133°
2026-04-25 04:50 34.64909 -119.27949 14262 ft 343 kts 132°
2026-04-25 04:50 34.63482 -119.25647 14013 ft 348 kts 126°
2026-04-25 04:50 34.62303 -119.23005 13371 ft 360 kts 118°
2026-04-25 04:51 34.61147 -119.20273 12738 ft 364 kts 122°
2026-04-25 04:51 34.59861 -119.17669 12500 ft 355 kts 124°
2026-04-25 04:51 34.58595 -119.15175 12265 ft 348 kts 123°
2026-04-25 04:51 34.57326 -119.12653 12005 ft 343 kts 123°
2026-04-25 04:52 34.56270 -119.10069 11729 ft 339 kts 112°
2026-04-25 04:52 34.55482 -119.07434 11502 ft 334 kts 111°
2026-04-25 04:52 34.54429 -119.04940 11223 ft 326 kts 133°
2026-04-25 04:52 34.52761 -119.03161 11005 ft 316 kts 148°
2026-04-25 04:53 34.50944 -119.01698 10761 ft 311 kts 149°
2026-04-25 04:53 34.49139 -119.00272 10517 ft 307 kts 149°
2026-04-25 04:53 34.47396 -118.98870 10344 ft 301 kts 149°
2026-04-25 04:53 34.45669 -118.97468 10076 ft 296 kts 148°
2026-04-25 04:54 34.43974 -118.96089 9955 ft 287 kts 149°
2026-04-25 04:54 34.42314 -118.94749 9612 ft 288 kts 149°
2026-04-25 04:54 34.40657 -118.93413 9361 ft 285 kts 149°
2026-04-25 04:54 34.39011 -118.92089 9084 ft 283 kts 148°
2026-04-25 04:55 34.37380 -118.90775 8818 ft 281 kts 148°
2026-04-25 04:55 34.35851 -118.89308 8550 ft 280 kts 140°
2026-04-25 04:55 34.34435 -118.87709 8312 ft 278 kts 138°
2026-04-25 04:55 34.33050 -118.86129 8069 ft 275 kts 139°
2026-04-25 04:56 34.31650 -118.84560 7822 ft 274 kts 139°
2026-04-25 04:56 34.30249 -118.83011 7585 ft 272 kts 139°
2026-04-25 04:56 34.28852 -118.81477 7348 ft 270 kts 139°
2026-04-25 04:56 34.27464 -118.79956 7106 ft 269 kts 138°
2026-04-25 04:57 34.26310 -118.78191 6811 ft 270 kts 116°
2026-04-25 04:57 34.25557 -118.76097 6544 ft 270 kts 114°
2026-04-25 04:57 34.24824 -118.74048 6429 ft 260 kts 114°
2026-04-25 04:57 34.24121 -118.72104 6324 ft 246 kts 114°
2026-04-25 04:58 34.23444 -118.70243 6067 ft 236 kts 114°
2026-04-25 04:58 34.22796 -118.68475 5789 ft 224 kts 115°
2026-04-25 04:58 34.22180 -118.66802 5525 ft 213 kts 115°
2026-04-25 04:58 34.21585 -118.65190 5288 ft 207 kts 116°
2026-04-25 04:59 34.21008 -118.63629 5036 ft 207 kts 116°
2026-04-25 04:59 34.20420 -118.62037 4784 ft 208 kts 116°
2026-04-25 04:59 34.20078 -118.60333 4503 ft 212 kts 90°
2026-04-25 04:59 34.20152 -118.58566 4241 ft 211 kts 93°
2026-04-25 05:00 34.20090 -118.56811 3961 ft 208 kts 94°
2026-04-25 05:00 34.20050 -118.55068 3682 ft 206 kts 92°
2026-04-25 05:00 34.20025 -118.53358 3428 ft 199 kts 92°
2026-04-25 05:00 34.20003 -118.51735 3150 ft 188 kts 92°
2026-04-25 05:01 34.19980 -118.50199 2906 ft 179 kts 91°
2026-04-25 05:01 34.19958 -118.48729 2678 ft 172 kts 91°
2026-04-25 05:01 34.19937 -118.47288 2463 ft 172 kts 91°
2026-04-25 05:01 34.19917 -118.45881 2262 ft 162 kts 91°
2026-04-25 05:02 34.19899 -118.44577 2043 ft 153 kts 91°
2026-04-25 05:02 34.19880 -118.43302 1837 ft 148 kts 91°
2026-04-25 05:02 34.19863 -118.42059 1640 ft 150 kts 92°
2026-04-25 05:02 34.19845 -118.40784 1443 ft 153 kts 92°
2026-04-25 05:03 34.19828 -118.39495 1234 ft 152 kts 93°
2026-04-25 05:03 34.19812 -118.38228 1027 ft 150 kts 92°
2026-04-25 05:03 34.19792 -118.36978 806 ft 147 kts 92°
2026-04-25 05:03 34.19780 -118.35851 727 ft 95 kts 91°
2026-04-25 05:04 34.19771 -118.35397 723 ft 38 kts 92°
2026-04-25 05:04 34.19756 -118.35160 720 ft 15 kts 123°
2026-04-25 05:04 34.19716 -118.35150 720 ft 6 kts 182°
2026-04-25 05:04 34.19685 -118.35152 721 ft 1 kts 181°
2026-04-25 05:05 34.19680 -118.35152 718 ft 0 kts 181°